Location: Ferchesar
(52.6477°N, 12.4298°E)
Time: 10:08:41
(UTC+01:00)

S-56A Canister/Altair - Pass Details

Date: 10 December 2021
Orbit: 633 x 2499 km, 38.9° (Epoch: 19 January)

Event Time Altitude Azimuth Distance (km) Brightness Sun altitude
Rises 22:20:45 0° 231° (SW) 5,874 12.1 -54.5°
Enters shadow 22:23:45 - 226° (SW) 5,085 11.7 -54.8°
Reaches altitude 10° 22:25:27 10° 223° (SW) 4,642 - -55.0°
Maximum altitude 22:35:34 31° 168° (SSE) 2,650 - -55.9°
Drops below altitude 10° 22:42:59 10° 110° (ESE) 3,365 - -56.6°
Sets 22:45:48 0° 100° (E) 4,088 - -56.9°
